Hourly Data Report for October 06, 2016

All times are specified in Local Standard Time (LST). Add 1 hour to adjust for Daylight Saving Time where and when it is observed.

PETAWAWA AWOS 2
ONTARIO

45°57'00.000" N
77°19'00.000" W
130.10 m
6106396
71625
YWA

Download Data

Hourly Data (October 2016)
Hourly Data Report for October 6, 2016
Temp Definition
°C
Dew Point Temp Definition
°C
Rel Hum Definition
%
Wind Dir Definition
10's deg

Wind Spd Definition
km/h
Visibility Definition
km
Stn Press Definition
kPa
Hmdx Definition


Wind Chill Definition


Weather Definition


TIME
00:00 13.2 12.3 94 11 6 14.5 100.68     LegendNANA
01:00 13.7 12.4 92 12 11 14.5 100.66     LegendNANA
02:00 13.3 12.5 95 16 4 14.5 100.63     LegendNANA
03:00 13.1 12.3 95 12 9 14.5 100.59     LegendNANA
04:00 13.0 12.5 97 15 6 14.5 100.60     LegendNANA
05:00 13.1 12.3 95 14 9 14.5 100.61     LegendNANA
06:00 13.0 12.6 97 14 9 14.5 100.64     LegendNANA
07:00 13.0 12.6 97 12 11 14.5 100.65     LegendNANA
08:00 13.6 12.9 96 14 9 14.5 100.74     LegendNANA
09:00 14.8 13.5 92 12 7 14.5 100.76     LegendNANA
10:00 16.9 14.3 85 12 9 14.5 100.75     LegendNANA
11:00 18.5 14.7 78 8 4 14.5 100.78     LegendNANA
12:00 19.7 15.6 77 9 9 14.5 100.77     LegendNANA
13:00 21.5 15.9 70 12 9 14.5 100.75 26   LegendNANA
14:00 22.5 17.1 72 11 13 14.5 100.71 28   LegendNANA
15:00 22.4 16.8 71 12 11 14.5 100.72 28   LegendNANA
16:00 22.2 16.4 70 12 7 14.5 100.71 27   LegendNANA
17:00 21.5 16.5 73 14 9 14.5 100.71 26   LegendNANA
18:00 20.2 16.6 80 13 7 14.5 100.77 25   LegendNANA
19:00 18.6 16.7 89 12 7 14.5 100.81     LegendNANA
20:00 18.0 16.5 91 12 7 14.5 100.84     LegendNANA
21:00 17.2 16.2 94 12 9 14.5 100.85     LegendNANA
22:00 16.7 15.9 95 13 7 14.5 100.84     LegendNANA
23:00 16.6 15.9 96 12 11 14.5 100.84     LegendNANA

Notes on Data Quality.

Legend

  • E = Estimated
  • M = Missing
  • NA = Not Available
  • ‡ = Partner data that is not subject to review by the National Climate Archives
Date modified: